This is the latest recevied weather packets stored in our database for station/object KC8UZG. If no packets are shown the sender has not sent any weather packets the latest 1 day(s).
| Time | Temp. | Humidity | Pressure | Rain* | Wind** | Luminosity | Snow |
|---|---|---|---|---|---|---|---|
| 1778012130 | 15° C | 99% | 1007.4 hPa | 2.54 mm | 0 m/s | 40 W/m² | - |
| 1778011536 | 15° C | 99% | 1007.6 hPa | 2.29 mm | 0 m/s | 29 W/m² | - |
| 1778010941 | 15.56° C | 99% | 1007.6 hPa | 1.78 mm | 0.45 m/s, 250° | 25 W/m² | - |
| 1778010320 | 16.11° C | 95% | 1007.6 hPa | 0.76 mm | 1.79 m/s, 247° | 26 W/m² | - |
| 1778009727 | 17.78° C | 86% | 1007.3 hPa | 0 mm | 0.89 m/s, 248° | 17 W/m² | - |
| 1778009132 | 18.33° C | 83% | - | 0 mm | 0 m/s | 41 W/m² | - |
| 1778008539 | 18.33° C | 82% | - | 0 mm | 0 m/s | 74 W/m² | - |
| 1778007918 | 18.33° C | 81% | 1007.6 hPa | 0 mm | 0.89 m/s, 252° | 45 W/m² | - |
| 1778007323 | 18.33° C | 82% | 1007.6 hPa | 0 mm | 0.89 m/s, 234° | 78 W/m² | - |
| 1778006729 | 18.89° C | 83% | - | 0 mm | 0 m/s | 65 W/m² | - |
| 1778006135 | 18.89° C | 83% | 1008 hPa | 0 mm | 0 m/s | 81 W/m² | - |
| 1778005541 | 18.33° C | 83% | 1008 hPa | 0 mm | 0 m/s | 89 W/m² | - |
| 1778004920 | 18.33° C | 84% | 1008 hPa | 0 mm | 0 m/s | 76 W/m² | - |
| 1778004327 | 18.33° C | 84% | 1008 hPa | 0 mm | 0 m/s | 57 W/m² | - |
| 1778003732 | 18.33° C | 83% | 1008 hPa | 0 mm | 0.45 m/s, 241° | 82 W/m² | - |
| 1778003138 | 18.33° C | 83% | - | 0 mm | 0.45 m/s, 242° | 98 W/m² | - |
| 1778002517 | 17.78° C | 83% | - | 0 mm | 0 m/s | 60 W/m² | - |
| 1778001923 | 18.33° C | 81% | - | 0 mm | 0.45 m/s, 229° | 48 W/m² | - |
| 1778001329 | 18.89° C | 80% | 1008 hPa | 0 mm | 0 m/s | 58 W/m² | - |
| 1778000734 | 18.89° C | 80% | 1008.2 hPa | 0 mm | 0 m/s | 116 W/m² | - |
| 1778000141 | 18.89° C | 81% | 1008 hPa | 0 mm | 0 m/s | 92 W/m² | - |
| 1777999520 | 18.89° C | 81% | 1008.2 hPa | 0 mm | 0 m/s | 76 W/m² | - |
| 1777998926 | 18.89° C | 81% | 1008.3 hPa | 0 mm | 0.45 m/s, 252° | 88 W/m² | - |
| 1777998332 | 18.89° C | 81% | 1008.3 hPa | 0 mm | 0.45 m/s, 230° | 78 W/m² | - |
| 1777997738 | 19.44° C | 81% | 1008.3 hPa | 0 mm | 0.45 m/s, 254° | 110 W/m² | - |
* Rain latest hour (hover to see other rain measurements)
** Current wind speed in m/s (hover to see current wind gust speed)